Temp
-8 -8 -9 -9 -9 -9 -9 -9 -9 -9 -9 -9 -10 -10 -10 -10 -10 -11 -11 -11 -11 -12 -12 -12 -12 -12 -12 -12 -12 -12 -12 -12 -12 -12 -12 -12 -11 -11 -11 -11 -11 -11
-8 -9 -9 -9 -9 -9 -9 -9 -9 -10 -10 -10 -10 -10 -10 -11 -11 -11 -11 -11 -12 -12 -12 -12 -12 -12 -12 -12 -12 -12 -12 -12 -12 -12 -12 -12 -12 -12 -12 -11 -11 -11
-9 -9 -9 -9 -9 -9 -9 -9 -10 -10 -10 -10 -10 -11 -11 -11 -11 -11 -11 -12 -12 -12 -12 -12 -12 -12 -12 -12 -12 -12 -12 -12 -12 -13 -12 -12 -12 -12 -12 -12 -12 -12
-9 -9 -9 -9 -9 -9 -9 -10 -10 -10 -10 -11 -11 -11 -11 -11 -11 -11 -12 -12 -12 -12 -12 -12 -12 -12 -12 -12 -12 -12 -12 -12 -13 -13 -13 -13 -13 -13 -12 -12 -12 -12
-9 -9 -9 -9 -9 -10 -10 -10 -10 -11 -11 -11 -11 -12 -12 -12 -12 -12 -12 -12 -12 -12 -12 -12 -12 -12 -12 -12 -12 -12 -12 -13 -13 -13 -13 -13 -13 -13 -13 -13 -13 -13
-9 -9 -9 -9 -10 -10 -10 -10 -11 -11 -11 -12 -12 -12 -12 -12 -12 -12 -12 -12 -12 -12 -12 -12 -12 -12 -12 -12 -12 -12 -13 -13 -13 -13 -13 -13 -14 -14 -14 -13 -13 -13
-9 -9 -10 -10 -10 -10 -11 -11 -11 -12 -12 -12 -12 -12 -12 -12 -12 -12 -13 -13 -13 -13 -13 -13 -13 -13 -13 -13 -13 -13 -13 -13 -13 -13 -13 -14 -14 -14 -14 -14 -14 -14
-10 -10 -10 -10 -10 -11 -11 -11 -12 -12 -12 -12 -12 -12 -12 -12 -12 -12 -13 -13 -13 -13 -13 -13 -13 -13 -13 -13 -13 -13 -13 -13 -13 -13 -14 -14 -14 -15 -15 -15 -14 -14
-10 -10 -10 -10 -11 -11 -11 -12 -12 -12 -12 -12 -12 -12 -12 -12 -12 -13 -13 -13 -13 -13 -13 -13 -13 -13 -13 -13 -13 -13 -13 -13 -13 -13 -14 -14 -14 -15 -15 -15 -15 -15
-10 -10 -10 -11 -11 -11 -11 -12 -12 -12 -12 -12 -12 -12 -12 -12 -13 -13 -13 -13 -13 -13 -13 -13 -13 -13 -13 -13 -13 -13 -13 -13 -13 -13 -14 -14 -14 -15 -15 -15 -15 -15
-10 -10 -10 -11 -11 -11 -12 -12 -12 -12 -12 -12 -12 -13 -13 -13 -13 -13 -13 -13 -13 -13 -13 -13 -13 -13 -13 -13 -13 -13 -13 -13 -13 -14 -14 -14 -14 -15 -15 -15 -15 -15
-10 -10 -11 -11 -11 -11 -12 -12 -12 -12 -12 -12 -13 -13 -13 -13 -13 -13 -13 -13 -13 -13 -13 -13 -13 -13 -13 -13 -13 -13 -13 -14 -14 -14 -14 -14 -14 -15 -15 -15 -15 -15
-10 -11 -11 -11 -11 -12 -12 -12 -12 -12 -12 -12 -12 -13 -13 -13 -13 -13 -13 -13 -13 -13 -13 -13 -13 -13 -13 -13 -14 -14 -14 -14 -14 -14 -14 -14 -14 -15 -15 -15 -15 -15
-11 -11 -11 -11 -11 -12 -12 -12 -12 -12 -12 -12 -12 -12 -13 -13 -13 -13 -13 -13 -13 -13 -13 -13 -13 -14 -14 -14 -14 -14 -14 -14 -14 -14 -14 -14 -14 -15 -15 -15 -15 -15
-11 -11 -11 -11 -11 -11 -11 -12 -12 -12 -12 -12 -12 -12 -13 -13 -13 -13 -13 -13 -13 -13 -13 -13 -13 -14 -14 -14 -14 -14 -14 -14 -14 -14 -14 -14 -14 -15 -15 -15 -15 -15
-11 -11 -11 -11 -11 -11 -11 -12 -12 -12 -12 -12 -12 -12 -13 -13 -13 -13 -13 -13 -13 -13 -13 -13 -14 -14 -14 -14 -14 -14 -14 -14 -14 -14 -14 -14 -15 -15 -15 -15 -15 -15
-11 -11 -11 -11 -11 -11 -11 -11 -12 -12 -12 -12 -12 -12 -12 -13 -13 -13 -13 -13 -13 -13 -13 -13 -14 -14 -14 -14 -14 -14 -14 -14 -14 -14 -14 -15 -15 -15 -15 -15 -15 -15
-11 -11 -11 -11 -11 -11 -11 -11 -12 -12 -12 -12 -12 -12 -12 -12 -13 -13 -13 -13 -13 -13 -13 -13 -14 -14 -14 -14 -14 -14 -14 -15 -15 -15 -15 -15 -15 -15 -15 -15 -15 -15
-11 -11 -11 -11 -11 -11 -11 -11 -11 -12 -12 -12 -12 -12 -12 -12 -12 -13 -13 -13 -13 -13 -13 -13 -14 -14 -14 -14 -15 -15 -15 -15 -15 -15 -15 -15 -15 -15 -15 -15 -15 -15
-11 -11 -11 -11 -11 -11 -11 -11 -11 -12 -12 -12 -12 -12 -12 -12 -12 -12 -12 -13 -13 -13 -13 -13 -14 -14 -14 -14 -15 -15 -15 -15 -15 -15 -15 -15 -15 -15 -15 -15 -15 -15
-11 -11 -11 -11 -11 -11 -11 -11 -11 -11 -12 -12 -12 -12 -12 -12 -12 -12 -12 -13 -13 -13 -13 -13 -14 -14 -14 -14 -15 -15 -15 -15 -15 -15 -15 -15 -15 -15 -15 -15 -15 -15
-11 -11 -11 -11 -11 -11 -11 -11 -11 -11 -12 -12 -12 -12 -12 -12 -12 -12 -12 -12 -13 -13 -13 -13 -14 -14 -14 -14 -14 -15 -15 -15 -15 -15 -15 -15 -15 -15 -15 -15 -15 -15
-11 -11 -11 -11 -11 -11 -11 -11 -11 -11 -11 -12 -12 -12 -12 -12 -12 -12 -12 -13 -13 -13 -13 -13 -14 -14 -14 -14 -14 -15 -15 -15 -15 -15 -15 -15 -15 -15 -15 -15 -15 -15
-11 -11 -11 -11 -11 -11 -11 -11 -11 -11 -11 -12 -12 -12 -12 -12 -12 -12 -13 -13 -13 -13 -14 -14 -14 -14 -14 -14 -14 -15 -15 -15 -15 -15 -15 -15 -15 -16 -16 -15 -15 -15
-11 -11 -11 -11 -11 -11 -11 -11 -12 -12 -12 -12 -12 -12 -12 -12 -12 -12 -13 -13 -13 -13 -14 -14 -14 -14 -14 -14 -15 -15 -15 -15 -15 -15 -15 -15 -15 -15 -16 -16 -16 -16
-11 -11 -11 -11 -11 -11 -12 -12 -12 -12 -12 -12 -12 -12 -12 -12 -12 -13 -13 -13 -13 -13 -14 -14 -14 -14 -14 -14 -15 -15 -15 -15 -15 -15 -15 -15 -15 -15 -15 -16 -16 -16
Height
5857 5856 5854 5852 5850 5848 5846 5844 5842 5840 5838 5836 5833 5831 5828 5826 5824 5822 5820 5818 5816 5815 5813 5811 5810 5809 5807 5806 5805 5803 5802 5801 5799 5798 5797 5796 5795 5795 5794 5794 5793 5793
5856 5854 5852 5851 5849 5847 5845 5843 5841 5839 5836 5834 5832 5829 5826 5824 5822 5820 5818 5816 5814 5813 5811 5809 5808 5806 5805 5803 5802 5800 5799 5798 5796 5795 5794 5793 5792 5791 5790 5789 5789 5789
5854 5852 5851 5849 5848 5846 5843 5841 5839 5837 5835 5832 5830 5827 5825 5823 5821 5819 5817 5815 5813 5811 5809 5808 5806 5804 5803 5801 5800 5798 5796 5795 5793 5792 5791 5790 5789 5788 5787 5786 5785 5784
5852 5851 5849 5848 5846 5844 5842 5840 5838 5836 5833 5831 5829 5826 5824 5822 5820 5818 5816 5814 5812 5810 5808 5807 5805 5803 5802 5800 5799 5797 5795 5793 5791 5789 5788 5786 5785 5784 5783 5782 5781 5780
5851 5849 5848 5846 5844 5843 5841 5839 5837 5835 5832 5830 5828 5825 5823 5821 5819 5816 5814 5813 5811 5809 5807 5806 5804 5803 5801 5799 5797 5795 5793 5791 5789 5787 5785 5783 5782 5781 5780 5779 5778 5777
5850 5848 5847 5845 5843 5841 5840 5838 5836 5833 5831 5829 5826 5824 5822 5820 5817 5815 5813 5811 5810 5808 5806 5805 5803 5801 5800 5798 5796 5794 5791 5789 5787 5784 5782 5780 5778 5777 5776 5775 5774 5773
5849 5847 5846 5844 5843 5841 5839 5837 5834 5832 5829 5827 5825 5822 5820 5818 5816 5814 5812 5810 5809 5807 5805 5804 5802 5800 5798 5796 5794 5792 5790 5787 5784 5781 5779 5777 5775 5774 5772 5771 5771 5770
5848 5846 5845 5843 5842 5840 5837 5835 5833 5830 5828 5826 5823 5821 5819 5817 5815 5813 5811 5809 5807 5806 5804 5802 5800 5799 5797 5795 5793 5791 5788 5785 5782 5779 5776 5774 5772 5771 5769 5768 5767 5767
5847 5846 5844 5842 5840 5838 5836 5833 5831 5829 5826 5824 5822 5820 5818 5816 5814 5812 5809 5808 5806 5804 5802 5801 5799 5797 5795 5793 5791 5789 5786 5784 5781 5777 5774 5772 5770 5768 5767 5765 5764 5764
5846 5845 5843 5841 5839 5836 5834 5832 5830 5828 5825 5823 5821 5819 5817 5815 5813 5810 5808 5806 5804 5802 5801 5799 5797 5795 5794 5792 5790 5787 5785 5782 5779 5776 5773 5770 5768 5766 5765 5763 5762 5761
5845 5843 5841 5839 5837 5835 5833 5831 5829 5827 5824 5822 5820 5818 5816 5813 5811 5809 5807 5805 5803 5801 5799 5797 5796 5794 5792 5790 5788 5786 5783 5780 5777 5774 5771 5769 5767 5765 5763 5761 5759 5758
5843 5842 5840 5838 5835 5833 5832 5830 5828 5825 5823 5821 5819 5817 5814 5812 5810 5808 5806 5803 5801 5799 5797 5796 5794 5792 5790 5788 5786 5784 5782 5779 5776 5773 5770 5768 5765 5763 5761 5759 5757 5756
5842 5840 5838 5836 5834 5833 5831 5829 5826 5824 5822 5820 5818 5815 5813 5811 5809 5807 5805 5802 5800 5798 5796 5794 5792 5790 5788 5787 5785 5783 5780 5778 5775 5772 5769 5766 5764 5761 5759 5757 5755 5754
5840 5839 5837 5835 5834 5832 5829 5827 5825 5823 5821 5819 5816 5814 5812 5810 5808 5805 5803 5801 5799 5796 5794 5792 5791 5789 5787 5785 5783 5781 5779 5777 5774 5771 5768 5765 5763 5760 5757 5755 5753 5752
5839 5838 5836 5834 5832 5830 5828 5826 5824 5822 5820 5818 5815 5813 5811 5808 5806 5804 5801 5799 5797 5795 5793 5791 5789 5787 5785 5784 5782 5780 5778 5775 5773 5770 5767 5765 5762 5759 5756 5754 5752 5750
5838 5836 5835 5833 5831 5829 5827 5825 5823 5821 5819 5816 5814 5812 5810 5807 5805 5802 5800 5798 5796 5794 5792 5789 5787 5786 5784 5782 5780 5778 5776 5774 5771 5769 5766 5764 5761 5758 5755 5752 5750 5748
5837 5835 5833 5832 5830 5828 5826 5824 5822 5820 5818 5815 5813 5811 5809 5806 5804 5801 5799 5797 5795 5793 5791 5788 5786 5784 5782 5780 5779 5777 5775 5772 5770 5767 5765 5763 5760 5758 5755 5752 5749 5747
5835 5834 5832 5830 5829 5827 5825 5823 5821 5819 5817 5815 5812 5810 5808 5805 5803 5801 5798 5796 5794 5792 5790 5787 5785 5783 5781 5779 5777 5775 5773 5771 5768 5766 5764 5762 5759 5757 5754 5751 5749 5746
5834 5833 5831 5829 5827 5826 5824 5822 5820 5818 5816 5814 5811 5809 5807 5804 5802 5799 5797 5795 5792 5790 5788 5786 5784 5781 5779 5777 5775 5774 5772 5770 5767 5765 5763 5761 5758 5756 5753 5751 5748 5746
5833 5831 5829 5828 5826 5825 5823 5821 5819 5817 5815 5813 5810 5808 5806 5803 5801 5798 5796 5794 5791 5789 5787 5785 5782 5780 5778 5776 5774 5772 5771 5769 5766 5764 5762 5759 5757 5755 5753 5750 5747 5745
5832 5830 5828 5827 5825 5823 5822 5820 5818 5816 5814 5812 5810 5808 5805 5803 5800 5797 5795 5792 5790 5787 5785 5783 5781 5779 5777 5775 5773 5771 5770 5768 5765 5763 5761 5758 5756 5754 5752 5749 5747 5745
5830 5828 5827 5825 5824 5822 5820 5819 5817 5815 5813 5811 5808 5806 5804 5802 5799 5796 5794 5791 5789 5787 5784 5782 5780 5778 5776 5774 5772 5770 5769 5767 5764 5762 5760 5757 5755 5752 5750 5748 5746 5744
5828 5827 5825 5824 5822 5821 5819 5817 5815 5813 5811 5809 5807 5805 5802 5800 5798 5795 5792 5790 5788 5786 5784 5781 5779 5777 5775 5773 5771 5769 5768 5766 5763 5761 5759 5756 5754 5751 5748 5746 5745 5743
5826 5825 5824 5822 5821 5819 5817 5816 5814 5812 5810 5808 5805 5803 5801 5798 5796 5794 5791 5789 5787 5785 5783 5781 5778 5776 5774 5772 5770 5768 5767 5764 5762 5760 5758 5755 5753 5751 5748 5745 5743 5741
5825 5823 5822 5820 5819 5817 5816 5814 5812 5810 5808 5806 5803 5801 5799 5797 5795 5792 5790 5788 5786 5784 5782 5780 5778 5775 5773 5771 5769 5767 5765 5763 5761 5759 5757 5754 5752 5750 5747 5745 5742 5740
5823 5821 5820 5818 5817 5815 5814 5812 5810 5808 5806 5804 5802 5799 5797 5795 5793 5791 5789 5787 5785 5783 5781 5779 5777 5775 5773 5771 5768 5766 5764 5762 5760 5758 5756 5753 5751 5748 5746 5744 5742 5740
Wind_Speed
28 29 30 31 31 31 31 31 31 31 31 31 32 32 33 33 33 33 33 32 31 30 29 28 26 25 24 23 22 21 21 20 20 20 21 23 25 28 31 33 34 34
27 28 28 28 27 27 27 27 27 28 28 29 29 30 31 31 31 31 31 30 29 28 28 26 25 24 23 23 22 22 22 21 21 20 20 21 21 23 26 29 32 34
26 26 25 25 24 24 24 24 25 26 26 27 28 28 28 29 29 29 28 28 27 25 25 24 23 23 22 22 22 22 23 23 22 22 21 21 21 21 23 25 28 31
23 23 23 22 22 21 22 22 23 24 24 25 25 25 26 26 26 26 25 24 23 22 22 21 21 21 21 21 22 23 24 24 24 24 23 23 22 22 22 23 25 27
21 21 20 20 20 20 20 21 21 22 22 22 23 23 24 24 24 24 23 22 21 21 21 21 21 21 20 21 23 24 25 26 26 26 26 25 24 23 22 22 24 25
19 18 17 17 18 18 19 19 19 20 20 21 22 22 23 23 23 23 22 21 21 21 21 21 20 20 20 22 23 25 26 27 28 28 27 26 25 24 23 23 23 24
16 16 16 16 16 17 17 18 19 19 20 21 21 22 22 23 23 22 22 21 20 20 20 20 19 19 20 22 24 25 27 29 29 28 27 26 24 23 23 23 23 23
14 14 14 15 15 16 17 18 19 20 21 21 21 22 23 23 23 22 22 21 20 20 20 20 19 19 20 21 24 26 28 29 29 28 26 25 23 22 22 22 22 23
13 13 14 14 15 17 18 20 21 21 21 21 21 22 22 23 23 23 22 21 20 20 20 20 20 19 20 22 24 26 28 29 29 28 25 23 22 21 20 21 21 22
12 12 13 14 16 18 20 21 21 21 21 22 22 22 22 23 23 23 23 22 21 20 20 21 20 20 20 22 24 26 28 29 29 29 26 24 22 20 19 19 20 20
11 12 13 15 17 19 20 21 22 22 22 22 22 22 23 23 23 23 23 22 21 21 21 21 21 20 21 22 24 26 27 28 29 29 28 25 22 20 19 18 19 19
11 13 14 15 17 19 20 21 22 23 23 23 23 23 23 23 23 23 23 23 22 22 21 21 21 21 22 23 24 26 27 28 28 29 28 27 24 22 20 19 18 19
12 13 15 16 17 18 20 21 22 23 24 24 24 24 24 24 23 23 23 23 23 23 22 22 22 22 22 22 23 25 26 27 28 28 28 28 26 23 21 20 19 19
13 14 15 16 17 19 20 21 22 23 24 24 25 25 25 24 24 23 23 23 23 23 23 23 22 22 22 22 23 23 24 26 27 27 28 28 27 25 23 21 20 19
14 15 16 16 18 19 20 21 22 23 24 25 26 26 26 25 24 24 24 24 23 23 23 23 23 22 22 22 23 23 24 25 26 26 27 27 27 26 24 22 20 20
14 16 17 17 18 19 20 21 22 23 25 26 26 27 26 26 25 24 24 23 23 23 23 23 23 23 22 22 22 23 23 24 25 26 26 26 26 26 25 23 21 20
15 16 17 17 19 20 20 21 22 23 25 25 26 27 27 26 25 23 23 22 22 22 22 23 23 23 22 22 22 23 23 23 25 26 26 26 26 26 25 24 22 20
15 16 17 17 19 20 20 21 22 23 24 25 26 27 27 26 25 23 23 23 23 23 22 23 23 23 23 22 23 23 23 23 24 25 26 26 26 26 26 25 24 22
15 16 17 18 19 19 20 21 22 23 24 24 26 27 27 26 25 24 23 23 24 24 23 23 23 23 23 22 22 23 23 23 24 25 25 25 25 25 25 26 26 24
16 17 17 18 19 19 20 21 21 23 24 24 25 26 27 27 26 25 24 24 24 25 25 24 24 23 23 23 22 22 22 22 23 24 24 24 24 24 25 25 25 25
16 17 17 18 19 19 20 21 22 23 24 24 25 25 26 26 26 25 25 24 24 25 25 24 24 23 23 23 23 22 22 22 22 23 24 24 24 24 23 24 24 25
16 17 17 18 18 19 20 21 22 23 24 25 25 25 25 26 26 25 25 25 24 24 24 24 24 23 23 23 23 23 22 22 22 22 22 22 23 24 23 23 23 24
16 17 18 18 19 19 21 22 23 24 25 25 25 25 25 25 25 25 25 25 24 23 23 24 24 23 23 23 23 23 23 22 22 22 22 22 22 23 23 23 23 23
17 17 18 19 19 20 21 22 23 24 25 25 25 25 25 25 25 25 24 24 24 23 23 23 23 23 23 23 23 23 23 23 22 22 22 22 22 22 22 23 23 24
18 18 19 20 20 21 22 23 23 24 24 25 25 25 25 25 24 24 24 24 23 23 23 23 22 23 23 23 23 23 23 23 22 22 22 22 22 22 21 22 22 23
19 19 20 21 21 22 23 23 23 24 24 24 24 24 24 24 23 23 23 23 23 22 22 22 22 22 23 23 23 24 24 23 23 23 22 23 23 23 23 22 22 23
Wind_Direction
324 323 322 320 318 317 318 318 318 319 319 320 321 322 323 324 324 324 324 324 325 325 325 326 326 325 324 323 321 318 314 311 306 299 292 284 276 270 265 261 259 258
322 321 319 318 318 319 319 320 321 322 323 324 325 326 326 326 326 325 326 326 326 327 327 328 328 328 328 327 326 324 320 317 313 307 302 295 287 279 272 267 263 259
322 319 319 319 321 322 322 324 326 327 328 328 328 328 326 326 326 326 327 328 329 330 331 332 333 333 334 334 333 331 328 325 320 315 309 302 295 287 281 274 269 265
321 319 321 323 324 326 328 330 331 332 332 331 330 328 327 327 327 328 329 330 332 334 335 336 336 336 337 337 337 335 332 329 325 320 315 308 301 293 286 280 275 270
320 322 324 325 328 332 334 336 336 337 337 335 334 333 331 331 330 331 332 332 333 334 335 335 335 335 337 337 337 336 334 331 327 322 317 311 305 298 291 284 278 274
322 324 325 329 334 336 337 340 342 343 343 342 341 340 338 337 335 333 331 331 331 331 332 332 332 334 336 337 338 338 337 335 330 325 319 314 308 302 295 287 280 276
322 324 329 335 337 338 342 346 349 350 349 348 347 347 346 344 341 337 332 329 328 329 331 332 332 333 336 338 339 341 341 340 336 330 323 317 311 306 300 292 284 278
323 327 333 337 338 343 349 353 354 354 352 351 351 351 351 349 346 342 337 333 330 330 333 333 333 333 335 338 340 343 344 344 342 337 329 321 315 309 304 299 292 283
325 330 335 339 344 350 355 356 356 355 353 352 351 351 351 350 350 347 342 337 332 331 332 333 333 333 334 337 340 344 346 347 347 344 336 327 321 315 309 304 299 291
326 333 338 344 350 355 357 357 356 355 353 351 350 349 349 349 349 349 346 341 336 331 331 332 332 331 332 335 339 344 346 348 349 349 345 336 327 322 315 309 304 297
328 336 342 348 355 357 358 357 356 355 353 350 349 348 347 347 347 347 345 342 338 333 330 330 330 330 330 333 337 342 346 348 350 351 350 344 334 327 320 313 308 301
332 339 344 350 356 357 356 356 355 355 353 351 349 347 346 346 345 344 343 341 339 336 332 330 330 329 329 332 335 340 344 346 348 351 352 349 341 332 325 318 312 306
335 339 344 351 355 355 355 356 355 354 353 351 349 347 346 345 344 342 340 338 338 336 334 331 330 329 330 331 334 339 343 345 347 349 352 352 348 339 330 323 316 310
335 338 343 349 352 352 353 354 354 354 353 351 350 348 346 344 343 342 340 339 336 335 334 332 330 329 329 331 333 336 341 344 346 348 351 353 352 346 337 329 322 315
334 336 341 345 349 351 351 352 352 352 352 352 351 349 346 345 344 344 342 340 336 334 334 333 331 330 330 331 332 335 340 343 344 348 351 354 354 351 344 337 329 321
333 334 336 343 347 348 349 350 350 350 351 351 351 349 347 346 346 346 344 340 338 336 335 334 334 332 331 332 332 334 338 341 343 346 350 352 354 354 351 343 334 327
332 331 333 340 344 344 346 347 348 349 349 350 350 350 349 348 348 347 344 343 341 340 338 338 337 335 334 333 333 335 338 339 341 344 347 349 352 354 355 351 343 334
328 328 331 338 341 341 343 345 346 347 348 348 350 350 350 349 349 348 347 347 346 344 344 343 340 339 339 336 335 336 338 339 339 341 344 347 348 350 353 355 353 345
324 325 331 336 338 338 340 343 345 345 346 347 349 350 349 349 350 350 351 351 349 348 349 348 346 344 343 341 338 337 338 338 338 338 340 343 344 346 349 353 356 354
321 325 331 334 334 336 338 341 343 342 343 346 348 349 348 349 351 351 352 353 352 351 351 352 351 349 347 345 343 340 339 338 337 337 338 339 341 343 346 349 352 355
320 326 330 331 332 335 336 339 340 339 341 343 345 346 347 349 351 351 352 354 354 353 353 354 354 352 351 350 347 345 343 340 338 337 337 338 339 340 343 346 347 350
320 325 327 328 330 333 335 336 337 337 338 339 341 343 345 347 350 351 352 353 354 354 353 354 356 355 353 352 350 349 347 344 342 341 339 339 338 338 341 343 344 346
319 322 323 325 328 331 332 333 334 334 335 335 337 340 342 345 349 352 352 352 353 353 353 354 356 356 354 353 352 352 351 349 348 346 344 343 341 339 340 341 342 344
317 318 320 322 325 328 329 330 331 331 332 333 335 337 339 342 347 350 352 352 352 351 352 354 355 355 355 354 352 353 353 353 353 352 349 347 345 342 340 340 341 343
315 317 319 321 324 326 326 328 328 329 329 331 333 335 336 339 344 346 349 351 351 350 351 353 354 354 353 353 352 353 354 354 355 355 353 351 348 346 343 342 342 342
314 316 319 322 324 325 326 326 326 327 328 330 333 334 335 337 341 343 346 348 348 348 350 351 352 352 351 352 352 352 353 354 355 356 356 354 351 348 347 345 343 343